Time,TemperatureF,DewpointF,PressureIn,WindDirection,WindDirectionDegrees,WindSpeedMPH,WindSpeedGustMPH,Humidity,HourlyPrecipIn,Conditions,Clouds,dailyrainin,SoftwareType,DateUTC
2013-08-06 00:03:00,64.0,31.0,30.13,WNW,292,0.0,0.0,29,0.00,,,0.00,WUHU21623XXSP,2013-08-06 07:03:00,
2013-08-06 00:08:00,63.5,30.6,30.13,WNW,292,0.0,0.0,29,0.00,,,0.00,WUHU21623XXSP,2013-08-06 07:08:00,
2013-08-06 00:13:00,63.1,30.2,30.13,SSE,157,0.0,0.0,29,0.00,,,0.00,WUHU21623XXSP,2013-08-06 07:13:00,
2013-08-06 00:19:00,62.6,30.9,30.12,ESE,112,0.0,0.0,30,0.00,,,0.00,WUHU21623XXSP,2013-08-06 07:19:00,
2013-08-06 00:24:00,62.4,30.6,30.13,ESE,112,0.0,0.0,30,0.00,,,0.00,WUHU21623XXSP,2013-08-06 07:24:00,
2013-08-06 00:29:00,62.2,30.4,30.13,North,0,0.0,0.0,30,0.00,,,0.00,WUHU21623XXSP,2013-08-06 07:29:00,
2013-08-06 00:34:00,61.9,30.1,30.13,NE,45,0.0,0.0,30,0.00,,,0.00,WUHU21623XXSP,2013-08-06 07:34:00,
2013-08-06 00:39:00,61.7,30.6,30.13,SSE,157,0.0,0.0,31,0.00,,,0.00,WUHU21623XXSP,2013-08-06 07:39:00,
2013-08-06 00:44:00,61.5,30.5,30.13,NW,315,0.0,0.0,31,0.00,,,0.00,WUHU21623XXSP,2013-08-06 07:44:00,
2013-08-06 00:49:00,61.5,31.2,30.13,NNW,337,0.0,0.0,32,0.00,,,0.00,WUHU21623XXSP,2013-08-06 07:49:00,
2013-08-06 00:54:00,61.2,31.6,30.13,NNW,337,0.0,0.0,33,0.00,,,0.00,WUHU21623XXSP,2013-08-06 07:54:00,
2013-08-06 00:59:00,61.0,31.4,30.13,NNW,337,0.0,0.0,33,0.00,,,0.00,WUHU21623XXSP,2013-08-06 07:59:00,
2013-08-06 01:04:00,60.6,31.1,30.13,WSW,247,0.0,0.0,33,0.00,,,0.00,WUHU21623XXSP,2013-08-06 08:04:00,
2013-08-06 01:09:00,60.4,31.0,30.13,North,0,0.0,0.0,33,0.00,,,0.00,WUHU21623XXSP,2013-08-06 08:09:00,
2013-08-06 01:14:00,60.1,31.0,30.13,SE,135,0.0,0.0,33,0.00,,,0.00,WUHU21623XXSP,2013-08-06 08:14:00,
2013-08-06 01:20:00,59.7,31.1,30.13,East,90,0.0,0.0,34,0.00,,,0.00,WUHU21623XXSP,2013-08-06 08:20:00,
2013-08-06 01:26:00,59.5,30.9,30.13,NE,45,0.0,0.0,34,0.00,,,0.00,WUHU21623XXSP,2013-08-06 08:26:00,
2013-08-06 01:31:00,59.2,31.5,30.13,ENE,67,0.0,0.0,35,0.00,,,0.00,WUHU21623XXSP,2013-08-06 08:31:00,
2013-08-06 01:37:00,59.0,30.5,30.13,ENE,67,0.0,0.0,34,0.00,,,0.00,WUHU21623XXSP,2013-08-06 08:37:00,
2013-08-06 01:42:00,58.8,31.0,30.13,SSE,157,0.0,0.0,35,0.00,,,0.00,WUHU21623XXSP,2013-08-06 08:42:00,
2013-08-06 01:52:00,58.5,30.7,30.13,NNE,22,0.0,0.0,35,0.00,,,0.00,WUHU21623XXSP,2013-08-06 08:52:00,
2013-08-06 01:57:00,58.3,30.5,30.13,NNE,22,0.0,0.0,35,0.00,,,0.00,WUHU21623XXSP,2013-08-06 08:57:00,
2013-08-06 02:02:00,58.3,30.5,30.13,NNE,22,0.0,0.0,35,0.00,,,0.00,WUHU21623XXSP,2013-08-06 09:02:00,
2013-08-06 02:07:00,57.9,30.9,30.14,WNW,292,0.0,0.0,36,0.00,,,0.00,WUHU21623XXSP,2013-08-06 09:07:00,
2013-08-06 02:12:00,57.9,31.6,30.13,NNW,337,0.0,0.0,37,0.00,,,0.00,WUHU21623XXSP,2013-08-06 09:12:00,
2013-08-06 02:17:00,57.9,31.6,30.13,WNW,292,0.0,0.0,37,0.00,,,0.00,WUHU21623XXSP,2013-08-06 09:17:00,
2013-08-06 02:22:00,57.9,30.9,30.13,NW,315,0.0,0.0,36,0.00,,,0.00,WUHU21623XXSP,2013-08-06 09:22:00,
2013-08-06 02:27:00,57.7,30.8,30.13,NW,315,0.0,0.0,36,0.00,,,0.00,WUHU21623XXSP,2013-08-06 09:27:00,
2013-08-06 02:32:00,57.6,30.6,30.13,WNW,292,0.0,0.0,36,0.00,,,0.00,WUHU21623XXSP,2013-08-06 09:32:00,
2013-08-06 02:37:00,57.0,30.4,30.13,SSW,202,0.0,0.0,36,0.00,,,0.00,WUHU21623XXSP,2013-08-06 09:37:00,
2013-08-06 02:45:00,56.8,29.9,30.13,NW,315,0.0,0.0,36,0.00,,,0.00,WUHU21623XXSP,2013-08-06 09:45:00,
2013-08-06 02:51:00,56.5,29.8,30.13,NW,315,0.0,0.0,36,0.00,,,0.00,WUHU21623XXSP,2013-08-06 09:51:00,
2013-08-06 02:57:00,56.3,30.2,30.13,NW,315,0.0,0.0,37,0.00,,,0.00,WUHU21623XXSP,2013-08-06 09:57:00,
2013-08-06 03:02:00,55.9,29.8,30.13,South,180,0.0,0.0,37,0.00,,,0.00,WUHU21623XXSP,2013-08-06 10:02:00,
2013-08-06 03:07:00,55.8,29.7,30.13,South,180,0.0,0.0,37,0.00,,,0.00,WUHU21623XXSP,2013-08-06 10:07:00,
2013-08-06 03:12:00,55.4,29.4,30.13,SW,225,0.0,0.0,37,0.00,,,0.00,WUHU21623XXSP,2013-08-06 10:12:00,
2013-08-06 03:18:00,55.2,29.2,30.13,SSW,202,0.0,0.0,37,0.00,,,0.00,WUHU21623XXSP,2013-08-06 10:18:00,
2013-08-06 03:23:00,54.9,29.6,30.13,SSW,202,0.0,0.0,38,0.00,,,0.00,WUHU21623XXSP,2013-08-06 10:23:00,
2013-08-06 03:28:00,54.7,29.4,30.13,SSW,202,0.0,0.0,38,0.00,,,0.00,WUHU21623XXSP,2013-08-06 10:28:00,
2013-08-06 03:35:00,54.3,29.1,30.13,SSW,202,0.0,0.0,38,0.00,,,0.00,WUHU21623XXSP,2013-08-06 10:35:00,
2013-08-06 03:41:00,54.0,28.8,30.13,SSW,202,0.0,0.0,38,0.00,,,0.00,WUHU21623XXSP,2013-08-06 10:41:00,
2013-08-06 03:46:00,53.8,28.8,30.14,SSW,202,0.0,0.0,38,0.00,,,0.00,WUHU21623XXSP,2013-08-06 10:46:00,
2013-08-06 03:51:00,53.8,28.6,30.14,ESE,112,0.0,0.0,38,0.00,,,0.00,WUHU21623XXSP,2013-08-06 10:51:00,
2013-08-06 03:57:00,53.4,28.3,30.14,WNW,292,0.0,0.0,38,0.00,,,0.00,WUHU21623XXSP,2013-08-06 10:57:00,
2013-08-06 04:02:00,53.4,29.0,30.14,WNW,292,0.0,0.0,39,0.00,,,0.00,WUHU21623XXSP,2013-08-06 11:02:00,
2013-08-06 04:07:00,53.2,28.8,30.14,SSW,202,0.0,0.0,39,0.00,,,0.00,WUHU21623XXSP,2013-08-06 11:07:00,
2013-08-06 04:13:00,53.1,28.7,30.14,South,180,0.0,0.0,39,0.00,,,0.00,WUHU21623XXSP,2013-08-06 11:13:00,
2013-08-06 04:18:00,52.9,28.5,30.14,South,180,0.0,0.0,39,0.00,,,0.00,WUHU21623XXSP,2013-08-06 11:18:00,
2013-08-06 04:24:00,52.5,28.2,30.14,SSE,157,0.0,0.0,39,0.00,,,0.00,WUHU21623XXSP,2013-08-06 11:24:00,
2013-08-06 04:29:00,52.3,28.2,30.14,SSE,157,0.0,0.0,39,0.00,,,0.00,WUHU21623XXSP,2013-08-06 11:29:00,
2013-08-06 04:34:00,52.3,28.0,30.14,SSE,157,0.0,0.0,39,0.00,,,0.00,WUHU21623XXSP,2013-08-06 11:34:00,
2013-08-06 04:41:00,52.0,27.7,30.14,SSE,157,0.0,0.0,39,0.00,,,0.00,WUHU21623XXSP,2013-08-06 11:41:00,
2013-08-06 04:46:00,51.6,28.2,30.14,SSE,157,0.0,0.0,40,0.00,,,0.00,WUHU21623XXSP,2013-08-06 11:46:00,
2013-08-06 04:51:00,51.6,28.1,30.14,South,180,0.0,0.0,40,0.00,,,0.00,WUHU21623XXSP,2013-08-06 11:51:00,
2013-08-06 04:56:00,51.4,28.1,30.14,South,180,0.0,0.0,40,0.00,,,0.00,WUHU21623XXSP,2013-08-06 11:56:00,
2013-08-06 05:01:00,51.3,27.7,30.14,SE,135,0.0,0.0,40,0.00,,,0.00,WUHU21623XXSP,2013-08-06 12:01:00,
2013-08-06 05:06:00,51.1,27.7,30.14,SE,135,0.0,0.0,40,0.00,,,0.00,WUHU21623XXSP,2013-08-06 12:06:00,
2013-08-06 05:11:00,50.9,28.0,30.15,SSE,157,0.0,0.0,41,0.00,,,0.00,WUHU21623XXSP,2013-08-06 12:11:00,
2013-08-06 05:20:00,50.7,27.8,30.14,SSW,202,0.0,0.0,41,0.00,,,0.00,WUHU21623XXSP,2013-08-06 12:20:00,
2013-08-06 05:25:00,50.5,27.6,30.14,SE,135,0.0,0.0,41,0.00,,,0.00,WUHU21623XXSP,2013-08-06 12:25:00,
2013-08-06 05:35:00,50.4,27.5,30.15,NNE,22,0.0,0.0,41,0.00,,,0.00,WUHU21623XXSP,2013-08-06 12:35:00,
2013-08-06 05:40:00,50.2,27.3,30.15,NNE,22,0.0,0.0,41,0.00,,,0.00,WUHU21623XXSP,2013-08-06 12:40:00,
2013-08-06 05:45:00,50.0,27.7,30.15,South,180,0.0,0.0,42,0.00,,,0.00,WUHU21623XXSP,2013-08-06 12:45:00,
2013-08-06 05:52:00,49.8,27.5,30.14,SSE,157,0.0,0.0,42,0.00,,,0.00,WUHU21623XXSP,2013-08-06 12:52:00,
2013-08-06 05:57:00,49.6,27.4,30.15,SSE,157,0.0,0.0,42,0.00,,,0.00,WUHU21623XXSP,2013-08-06 12:57:00,
2013-08-06 06:02:00,49.6,27.4,30.15,SSE,157,0.0,0.0,42,0.00,,,0.00,WUHU21623XXSP,2013-08-06 13:02:00,
2013-08-06 06:07:00,49.3,27.6,30.15,SE,135,0.0,0.0,43,0.00,,,0.00,WUHU21623XXSP,2013-08-06 13:07:00,
2013-08-06 06:12:00,49.3,27.6,30.15,SE,135,0.0,0.0,43,0.00,,,0.00,WUHU21623XXSP,2013-08-06 13:12:00,
2013-08-06 06:17:00,48.9,27.3,30.16,SSE,157,0.0,0.0,43,0.00,,,0.00,WUHU21623XXSP,2013-08-06 13:17:00,
2013-08-06 06:24:00,48.6,26.5,30.15,SSE,157,0.0,0.0,42,0.00,,,0.00,WUHU21623XXSP,2013-08-06 13:24:00,
2013-08-06 06:32:00,48.6,26.4,30.16,South,180,0.0,0.0,42,0.00,,,0.00,WUHU21623XXSP,2013-08-06 13:32:00,
2013-08-06 06:37:00,48.4,26.2,30.16,South,180,0.0,0.0,43,0.00,,,0.00,WUHU21623XXSP,2013-08-06 13:37:00,
2013-08-06 06:43:00,48.2,26.6,30.16,SSE,157,0.0,0.0,43,0.00,,,0.00,WUHU21623XXSP,2013-08-06 13:43:00,
2013-08-06 06:48:00,48.2,26.6,30.16,ENE,67,0.0,0.0,43,0.00,,,0.00,WUHU21623XXSP,2013-08-06 13:48:00,
2013-08-06 06:54:00,48.4,27.3,30.16,ENE,67,0.0,0.0,44,0.00,,,0.00,WUHU21623XXSP,2013-08-06 13:54:00,
2013-08-06 06:59:00,48.4,27.3,30.16,ENE,67,0.0,0.0,44,0.00,,,0.00,WUHU21623XXSP,2013-08-06 13:59:00,
2013-08-06 07:04:00,48.4,27.3,30.16,ENE,67,0.0,0.0,44,0.00,,,0.00,WUHU21623XXSP,2013-08-06 14:04:00,
2013-08-06 07:09:00,48.7,28.2,30.16,ENE,67,0.0,0.0,45,0.00,,,0.00,WUHU21623XXSP,2013-08-06 14:09:00,
2013-08-06 07:14:00,48.9,28.4,30.16,ENE,67,0.0,0.0,45,0.00,,,0.00,WUHU21623XXSP,2013-08-06 14:14:00,
2013-08-06 07:19:00,49.3,28.7,30.17,ENE,67,0.0,0.0,45,0.00,,,0.00,WUHU21623XXSP,2013-08-06 14:19:00,
2013-08-06 07:26:00,49.8,29.2,30.16,South,180,0.0,0.0,45,0.00,,,0.00,WUHU21623XXSP,2013-08-06 14:26:00,
2013-08-06 07:31:00,50.0,29.4,30.16,SSW,202,0.0,0.0,45,0.00,,,0.00,WUHU21623XXSP,2013-08-06 14:31:00,
2013-08-06 07:37:00,50.7,30.4,30.16,South,180,0.0,0.0,46,0.00,,,0.00,WUHU21623XXSP,2013-08-06 14:37:00,
2013-08-06 07:43:00,51.1,30.9,30.16,WSW,247,0.0,0.0,46,0.00,,,0.00,WUHU21623XXSP,2013-08-06 14:43:00,
2013-08-06 07:48:00,51.4,30.9,30.16,South,180,0.0,0.0,46,0.00,,,0.00,WUHU21623XXSP,2013-08-06 14:48:00,
2013-08-06 07:53:00,51.6,31.4,30.16,SSW,202,0.0,0.0,46,0.00,,,0.00,WUHU21623XXSP,2013-08-06 14:53:00,
2013-08-06 07:58:00,52.3,32.1,30.16,WNW,292,0.0,0.0,46,0.00,,,0.00,WUHU21623XXSP,2013-08-06 14:58:00,
2013-08-06 08:03:00,52.7,32.2,30.16,SW,225,0.0,0.0,46,0.00,,,0.00,WUHU21623XXSP,2013-08-06 15:03:00,
2013-08-06 08:08:00,53.2,32.9,30.16,SSE,157,0.0,0.0,46,0.00,,,0.00,WUHU21623XXSP,2013-08-06 15:08:00,
2013-08-06 08:13:00,53.6,33.0,30.16,SSE,157,0.0,0.0,46,0.00,,,0.00,WUHU21623XXSP,2013-08-06 15:13:00,
2013-08-06 08:18:00,53.8,33.4,30.16,SSE,157,0.0,0.0,46,0.00,,,0.00,WUHU21623XXSP,2013-08-06 15:18:00,
2013-08-06 08:26:00,55.0,33.9,30.17,South,180,0.0,0.0,45,0.00,,,0.00,WUHU21623XXSP,2013-08-06 15:26:00,
2013-08-06 08:31:00,55.6,34.1,30.16,SSW,202,0.0,0.0,45,0.00,,,0.00,WUHU21623XXSP,2013-08-06 15:31:00,
2013-08-06 08:37:00,55.9,34.8,30.17,SSE,157,0.0,0.0,45,0.00,,,0.00,WUHU21623XXSP,2013-08-06 15:37:00,
2013-08-06 08:42:00,56.5,35.3,30.16,SSE,157,0.0,0.0,45,0.00,,,0.00,WUHU21623XXSP,2013-08-06 15:42:00,
2013-08-06 08:47:00,57.0,35.8,30.17,South,180,0.0,0.0,45,0.00,,,0.00,WUHU21623XXSP,2013-08-06 15:47:00,
2013-08-06 08:52:00,58.3,36.0,30.17,SE,135,0.0,0.0,44,0.00,,,0.00,WUHU21623XXSP,2013-08-06 15:52:00,
2013-08-06 08:57:00,58.6,36.1,30.17,SSE,157,0.0,0.0,43,0.00,,,0.00,WUHU21623XXSP,2013-08-06 15:57:00,
2013-08-06 09:02:00,59.2,36.6,30.17,SSE,157,0.0,0.0,43,0.00,,,0.00,WUHU21623XXSP,2013-08-06 16:02:00,
2013-08-06 09:07:00,59.7,36.5,30.17,West,270,0.0,0.0,42,0.00,,,0.00,WUHU21623XXSP,2013-08-06 16:07:00,
2013-08-06 09:12:00,60.3,36.4,30.16,ESE,112,0.0,0.0,41,0.00,,,0.00,WUHU21623XXSP,2013-08-06 16:12:00,
2013-08-06 09:17:00,60.6,36.2,30.16,North,0,0.0,0.0,40,0.00,,,0.00,WUHU21623XXSP,2013-08-06 16:17:00,
2013-08-06 09:22:00,61.3,36.8,30.16,East,90,0.0,0.0,40,0.00,,,0.00,WUHU21623XXSP,2013-08-06 16:22:00,
2013-08-06 09:27:00,61.7,37.0,30.16,North,0,0.0,0.0,40,0.00,,,0.00,WUHU21623XXSP,2013-08-06 16:27:00,
2013-08-06 09:32:00,62.2,36.9,30.16,SSE,157,0.0,0.0,39,0.00,,,0.00,WUHU21623XXSP,2013-08-06 16:32:00,
2013-08-06 09:37:00,62.8,36.5,30.16,SSE,157,0.0,0.0,38,0.00,,,0.00,WUHU21623XXSP,2013-08-06 16:37:00,
2013-08-06 09:42:00,63.3,37.0,30.16,SW,225,0.0,0.0,38,0.00,,,0.00,WUHU21623XXSP,2013-08-06 16:42:00,
2013-08-06 09:47:00,63.7,36.8,30.16,NNE,22,0.0,0.0,37,0.00,,,0.00,WUHU21623XXSP,2013-08-06 16:47:00,
2013-08-06 09:52:00,64.2,37.1,30.16,NNE,22,0.0,0.0,37,0.00,,,0.00,WUHU21623XXSP,2013-08-06 16:52:00,
2013-08-06 09:57:00,64.8,37.6,30.16,West,270,0.0,0.0,36,0.00,,,0.00,WUHU21623XXSP,2013-08-06 16:57:00,
2013-08-06 10:02:00,65.1,37.3,30.16,North,0,0.0,0.0,36,0.00,,,0.00,WUHU21623XXSP,2013-08-06 17:02:00,
2013-08-06 10:09:00,66.0,37.4,30.16,NW,315,0.0,0.0,35,0.00,,,0.00,WUHU21623XXSP,2013-08-06 17:09:00,
2013-08-06 10:14:00,66.6,37.9,30.16,West,270,0.0,0.0,35,0.00,,,0.00,WUHU21623XXSP,2013-08-06 17:14:00,
2013-08-06 10:19:00,67.3,38.5,30.16,ESE,112,0.0,0.0,35,0.00,,,0.00,WUHU21623XXSP,2013-08-06 17:19:00,
2013-08-06 10:24:00,67.8,38.2,30.16,WNW,292,0.0,0.0,34,0.00,,,0.00,WUHU21623XXSP,2013-08-06 17:24:00,
2013-08-06 10:34:00,69.1,37.1,30.15,WNW,292,0.0,0.0,31,0.00,,,0.00,WUHU21623XXSP,2013-08-06 17:34:00,
2013-08-06 10:35:00,69.1,37.1,30.15,WNW,292,0.0,0.0,31,0.00,,,0.00,WUHU21623XXSP,2013-08-06 17:35:00,
2013-08-06 10:40:00,70.0,38.4,30.15,WNW,292,0.0,0.0,32,0.00,,,0.00,WUHU21623XXSP,2013-08-06 17:40:00,
2013-08-06 10:45:00,70.5,38.4,30.15,SSE,157,0.0,0.0,31,0.00,,,0.00,WUHU21623XXSP,2013-08-06 17:45:00,
2013-08-06 10:50:00,70.9,38.8,30.14,NNW,337,0.0,0.0,31,0.00,,,0.00,WUHU21623XXSP,2013-08-06 17:50:00,
2013-08-06 11:02:00,72.3,37.2,30.14,NW,315,1.1,1.1,28,0.00,,,0.00,WUHU21623XXSP,2013-08-06 18:02:00,
2013-08-06 11:11:00,73.6,34.2,30.14,WNW,292,0.0,1.1,24,0.00,,,0.00,WUHU21623XXSP,2013-08-06 18:11:00,
2013-08-06 11:16:00,73.8,34.3,30.14,WNW,292,0.0,0.0,24,0.00,,,0.00,WUHU21623XXSP,2013-08-06 18:16:00,
2013-08-06 11:21:00,74.5,35.8,30.14,SE,135,0.0,0.0,25,0.00,,,0.00,WUHU21623XXSP,2013-08-06 18:21:00,
2013-08-06 11:28:00,75.6,35.9,30.13,NW,315,0.0,0.0,24,0.00,,,0.00,WUHU21623XXSP,2013-08-06 18:28:00,
2013-08-06 11:34:00,76.3,36.5,30.13,SSE,157,0.0,0.0,24,0.00,,,0.00,WUHU21623XXSP,2013-08-06 18:34:00,
2013-08-06 11:41:00,77.0,36.0,30.13,WNW,292,0.0,0.0,23,0.00,,,0.00,WUHU21623XXSP,2013-08-06 18:41:00,
2013-08-06 11:46:00,77.5,36.5,30.13,SSW,202,0.0,0.0,23,0.00,,,0.00,WUHU21623XXSP,2013-08-06 18:46:00,
2013-08-06 11:51:00,78.1,36.9,30.13,WNW,292,0.0,0.0,23,0.00,,,0.00,WUHU21623XXSP,2013-08-06 18:51:00,
2013-08-06 11:58:00,79.0,36.6,30.12,North,0,0.0,0.0,21,0.00,,,0.00,WUHU21623XXSP,2013-08-06 18:58:00,
2013-08-06 12:03:00,79.5,36.0,30.13,WSW,247,1.1,1.1,21,0.00,,,0.00,WUHU21623XXSP,2013-08-06 19:03:00,
2013-08-06 12:09:00,80.4,36.8,30.12,SSE,157,0.0,1.1,21,0.00,,,0.00,WUHU21623XXSP,2013-08-06 19:09:00,
2013-08-06 12:17:00,81.3,37.6,30.12,NW,315,0.0,0.0,21,0.00,,,0.00,WUHU21623XXSP,2013-08-06 19:17:00,
2013-08-06 12:22:00,81.7,36.8,30.12,West,270,0.0,0.0,20,0.00,,,0.00,WUHU21623XXSP,2013-08-06 19:22:00,
2013-08-06 12:30:00,82.6,34.1,30.12,WNW,292,6.0,6.0,18,0.00,,,0.00,WUHU21623XXSP,2013-08-06 19:30:00,
2013-08-06 12:41:00,83.8,33.4,30.11,NNE,22,0.0,0.0,17,0.00,,,0.00,WUHU21623XXSP,2013-08-06 19:41:00,
2013-08-06 12:46:00,84.2,33.7,30.11,South,180,1.8,1.8,17,0.00,,,0.00,WUHU21623XXSP,2013-08-06 19:46:00,
2013-08-06 12:51:00,84.7,37.6,30.11,WSW,247,0.0,1.8,19,0.00,,,0.00,WUHU21623XXSP,2013-08-06 19:51:00,
2013-08-06 12:56:00,85.5,38.1,30.11,SW,225,0.0,0.0,19,0.00,,,0.00,WUHU21623XXSP,2013-08-06 19:56:00,
2013-08-06 13:04:00,86.2,35.3,30.11,South,180,0.0,0.0,17,0.00,,,0.00,WUHU21623XXSP,2013-08-06 20:04:00,
2013-08-06 13:09:00,86.5,35.6,30.10,South,180,0.0,0.0,17,0.00,,,0.00,WUHU21623XXSP,2013-08-06 20:09:00,
2013-08-06 13:17:00,87.4,38.1,30.10,West,270,0.0,0.0,18,0.00,,,0.00,WUHU21623XXSP,2013-08-06 20:17:00,
2013-08-06 13:23:00,88.0,38.6,30.10,SSE,157,0.7,0.7,18,0.00,,,0.00,WUHU21623XXSP,2013-08-06 20:23:00,
2013-08-06 13:28:00,88.2,38.7,30.09,SSE,157,0.0,0.7,18,0.00,,,0.00,WUHU21623XXSP,2013-08-06 20:28:00,
2013-08-06 13:32:00,88.5,39.0,30.09,South,180,0.0,0.7,18,0.00,,,0.00,WUHU21623XXSP,2013-08-06 20:32:00,
2013-08-06 13:40:00,89.2,39.6,30.09,ENE,67,0.0,0.0,18,0.00,,,0.00,WUHU21623XXSP,2013-08-06 20:40:00,
2013-08-06 13:45:00,89.2,36.1,30.09,SE,135,2.9,2.9,16,0.00,,,0.00,WUHU21623XXSP,2013-08-06 20:45:00,
2013-08-06 13:51:00,89.8,36.5,30.09,West,270,0.0,2.9,16,0.00,,,0.00,WUHU21623XXSP,2013-08-06 20:51:00,
2013-08-06 14:00:00,90.1,35.0,30.08,SE,135,0.0,0.0,15,0.00,,,0.00,WUHU21623XXSP,2013-08-06 21:00:00,
2013-08-06 14:05:00,90.3,35.2,30.08,SSW,202,0.0,0.0,15,0.00,,,0.00,WUHU21623XXSP,2013-08-06 21:05:00,
2013-08-06 14:10:00,90.9,35.6,30.08,South,180,8.1,8.1,15,0.00,,,0.00,WUHU21623XXSP,2013-08-06 21:10:00,
2013-08-06 14:15:00,91.0,35.8,30.08,WNW,292,0.0,8.1,15,0.00,,,0.00,WUHU21623XXSP,2013-08-06 21:15:00,
2013-08-06 14:20:00,91.2,35.9,30.08,West,270,0.7,0.7,15,0.00,,,0.00,WUHU21623XXSP,2013-08-06 21:20:00,
2013-08-06 14:25:00,91.2,37.7,30.07,South,180,2.2,2.2,16,0.00,,,0.00,WUHU21623XXSP,2013-08-06 21:25:00,
2013-08-06 14:32:00,91.4,35.9,30.07,NW,315,2.9,2.9,15,0.00,,,0.00,WUHU21623XXSP,2013-08-06 21:32:00,
2013-08-06 14:38:00,91.6,36.2,30.06,West,270,0.0,2.9,15,0.00,,,0.00,WUHU21623XXSP,2013-08-06 21:38:00,
2013-08-06 14:43:00,91.8,38.1,30.06,SSW,202,4.5,4.5,16,0.00,,,0.00,WUHU21623XXSP,2013-08-06 21:43:00,
2013-08-06 14:53:00,91.9,36.4,30.06,South,180,0.9,0.9,15,0.00,,,0.00,WUHU21623XXSP,2013-08-06 21:53:00,
2013-08-06 14:58:00,91.9,36.4,30.06,SSE,157,0.0,0.9,15,0.00,,,0.00,WUHU21623XXSP,2013-08-06 21:58:00,
2013-08-06 15:03:00,91.9,36.4,30.06,SSE,157,8.3,8.3,15,0.00,,,0.00,WUHU21623XXSP,2013-08-06 22:03:00,
2013-08-06 15:13:00,91.9,34.7,30.06,South,180,3.1,3.1,14,0.00,,,0.00,WUHU21623XXSP,2013-08-06 22:13:00,
2013-08-06 15:18:00,91.9,34.7,30.06,SSW,202,3.4,3.4,15,0.00,,,0.00,WUHU21623XXSP,2013-08-06 22:18:00,
2013-08-06 15:23:00,91.9,36.4,30.06,West,270,0.0,3.4,15,0.00,,,0.00,WUHU21623XXSP,2013-08-06 22:23:00,
2013-08-06 15:28:00,91.9,36.4,30.05,ENE,67,0.0,0.0,15,0.00,,,0.00,WUHU21623XXSP,2013-08-06 22:28:00,
2013-08-06 15:33:00,91.9,36.4,30.05,SSE,157,2.9,2.9,15,0.00,,,0.00,WUHU21623XXSP,2013-08-06 22:33:00,
2013-08-06 15:38:00,92.1,36.6,30.06,WNW,292,0.9,2.9,15,0.00,,,0.00,WUHU21623XXSP,2013-08-06 22:38:00,
2013-08-06 15:43:00,92.3,36.7,30.05,South,180,2.7,2.7,15,0.00,,,0.00,WUHU21623XXSP,2013-08-06 22:43:00,
2013-08-06 15:48:00,92.5,36.9,30.05,SSW,202,0.0,2.7,15,0.00,,,0.00,WUHU21623XXSP,2013-08-06 22:48:00,
2013-08-06 15:53:00,92.8,36.9,30.05,NW,315,5.4,5.4,15,0.00,,,0.00,WUHU21623XXSP,2013-08-06 22:53:00,
2013-08-06 16:00:00,92.8,37.1,30.04,WNW,292,10.7,10.7,15,0.00,,,0.00,WUHU21623XXSP,2013-08-06 23:00:00,
2013-08-06 16:08:00,92.8,37.1,30.04,WSW,247,5.8,10.7,15,0.00,,,0.00,WUHU21623XXSP,2013-08-06 23:08:00,
2013-08-06 16:17:00,92.8,38.9,30.05,WNW,292,0.0,5.8,16,0.00,,,0.00,WUHU21623XXSP,2013-08-06 23:17:00,
2013-08-06 16:23:00,92.8,38.9,30.06,West,270,0.0,0.0,16,0.00,,,0.00,WUHU21623XXSP,2013-08-06 23:23:00,
2013-08-06 16:28:00,92.5,38.6,30.06,North,0,0.0,0.0,16,0.00,,,0.00,WUHU21623XXSP,2013-08-06 23:28:00,
2013-08-06 16:33:00,91.9,38.2,30.06,SSE,157,4.9,4.9,16,0.00,,,0.00,WUHU21623XXSP,2013-08-06 23:33:00,
2013-08-06 16:38:00,90.9,37.4,30.06,South,180,13.4,13.4,16,0.00,,,0.00,WUHU21623XXSP,2013-08-06 23:38:00,
2013-08-06 16:43:00,89.6,36.4,30.07,SSE,157,12.5,13.4,16,0.00,,,0.00,WUHU21623XXSP,2013-08-06 23:43:00,
2013-08-06 16:49:00,88.5,39.0,30.07,ESE,112,0.0,12.5,18,0.00,,,0.00,WUHU21623XXSP,2013-08-06 23:49:00,
2013-08-06 16:59:00,86.9,35.9,30.07,South,180,4.0,4.0,17,0.00,,,0.00,WUHU21623XXSP,2013-08-06 23:59:00,
2013-08-06 17:08:00,85.8,35.0,30.08,SE,135,5.1,5.1,17,0.00,,,0.00,WUHU21623XXSP,2013-08-07 00:08:00,
2013-08-06 17:14:00,85.1,34.4,30.08,SE,135,0.0,5.1,17,0.00,,,0.00,WUHU21623XXSP,2013-08-07 00:14:00,
2013-08-06 17:25:00,84.6,34.0,30.06,SSE,157,0.9,0.9,17,0.00,,,0.00,WUHU21623XXSP,2013-08-07 00:25:00,
2013-08-06 17:36:00,84.6,34.0,30.06,North,0,10.7,10.7,17,0.00,,,0.00,WUHU21623XXSP,2013-08-07 00:36:00,
2013-08-06 17:42:00,84.7,34.1,30.07,WNW,292,4.0,10.7,17,0.00,,,0.00,WUHU21623XXSP,2013-08-07 00:42:00,
2013-08-06 17:47:00,84.9,34.3,30.08,WNW,292,0.0,4.0,17,0.00,,,0.00,WUHU21623XXSP,2013-08-07 00:47:00,
2013-08-06 17:52:00,85.1,34.4,30.08,NNW,337,3.8,3.8,17,0.00,,,0.00,WUHU21623XXSP,2013-08-07 00:52:00,
2013-08-06 17:57:00,85.3,34.6,30.06,NW,315,4.5,4.5,17,0.00,,,0.00,WUHU21623XXSP,2013-08-07 00:57:00,
2013-08-06 18:03:00,85.6,33.2,30.06,NNE,22,0.0,4.5,16,0.00,,,0.00,WUHU21623XXSP,2013-08-07 01:03:00,
2013-08-06 18:08:00,85.3,32.9,30.06,WNW,292,5.6,5.6,16,0.00,,,0.00,WUHU21623XXSP,2013-08-07 01:08:00,
2013-08-06 18:14:00,85.3,34.6,30.05,WNW,292,4.0,5.6,17,0.00,,,0.00,WUHU21623XXSP,2013-08-07 01:14:00,
2013-08-06 18:19:00,85.3,34.6,30.05,WNW,292,0.0,4.0,17,0.00,,,0.00,WUHU21623XXSP,2013-08-07 01:19:00,
2013-08-06 18:24:00,85.6,34.9,30.06,WNW,292,0.0,0.0,17,0.00,,,0.00,WUHU21623XXSP,2013-08-07 01:24:00,
2013-08-06 18:29:00,85.5,34.7,30.05,SSW,202,0.0,0.0,17,0.00,,,0.00,WUHU21623XXSP,2013-08-07 01:29:00,
2013-08-06 18:35:00,85.1,34.4,30.05,SW,225,2.0,2.0,17,0.00,,,0.00,WUHU21623XXSP,2013-08-07 01:35:00,
2013-08-06 18:40:00,84.7,34.1,30.06,South,180,3.4,3.4,17,0.00,,,0.00,WUHU21623XXSP,2013-08-07 01:40:00,
2013-08-06 18:50:00,84.0,35.3,30.05,West,270,3.1,3.1,18,0.00,,,0.00,WUHU21623XXSP,2013-08-07 01:50:00,
2013-08-06 18:55:00,84.0,38.7,30.06,WNW,292,0.0,3.1,20,0.00,,,0.00,WUHU21623XXSP,2013-08-07 01:55:00,
2013-08-06 19:01:00,83.8,39.6,30.06,WNW,292,11.0,11.0,21,0.00,,,0.00,WUHU21623XXSP,2013-08-07 02:01:00,
2013-08-06 19:06:00,83.7,39.5,30.06,West,270,3.1,11.0,21,0.00,,,0.00,WUHU21623XXSP,2013-08-07 02:06:00,
2013-08-06 19:12:00,83.1,40.1,30.06,NW,315,0.0,3.1,22,0.00,,,0.00,WUHU21623XXSP,2013-08-07 02:12:00,
2013-08-06 19:20:00,82.6,40.7,30.06,NNW,337,2.0,2.0,23,0.00,,,0.00,WUHU21623XXSP,2013-08-07 02:20:00,
2013-08-06 19:25:00,82.2,40.4,30.07,WNW,292,3.8,3.8,23,0.00,,,0.00,WUHU21623XXSP,2013-08-07 02:25:00,
2013-08-06 19:40:00,81.0,40.4,30.05,NW,315,4.5,4.5,24,0.00,,,0.00,WUHU21623XXSP,2013-08-07 02:40:00,
2013-08-06 19:45:00,80.6,40.1,30.05,WNW,292,4.9,4.9,24,0.00,,,0.00,WUHU21623XXSP,2013-08-07 02:45:00,
2013-08-06 19:50:00,80.1,40.7,30.06,WNW,292,0.9,4.9,25,0.00,,,0.00,WUHU21623XXSP,2013-08-07 02:50:00,
2013-08-06 19:57:00,79.5,41.3,30.05,NW,315,4.7,4.7,26,0.00,,,0.00,WUHU21623XXSP,2013-08-07 02:57:00,
2013-08-06 20:02:00,79.0,40.8,30.06,West,270,3.8,4.7,26,0.00,,,0.00,WUHU21623XXSP,2013-08-07 03:02:00,
2013-08-06 20:07:00,78.4,41.4,30.06,West,270,4.5,4.5,27,0.00,,,0.00,WUHU21623XXSP,2013-08-07 03:07:00,
2013-08-06 20:14:00,77.9,40.9,30.06,NW,315,4.9,4.9,27,0.00,,,0.00,WUHU21623XXSP,2013-08-07 03:14:00,
2013-08-06 20:20:00,77.4,40.5,30.06,WNW,292,3.8,4.9,27,0.00,,,0.00,WUHU21623XXSP,2013-08-07 03:20:00,
2013-08-06 20:27:00,77.0,40.2,30.07,NW,315,0.0,3.8,27,0.00,,,0.00,WUHU21623XXSP,2013-08-07 03:27:00,
2013-08-06 20:28:00,77.0,40.2,30.07,NW,315,0.0,3.8,27,0.00,,,0.00,WUHU21623XXSP,2013-08-07 03:28:00,
2013-08-06 20:33:00,76.8,40.0,30.07,West,270,0.0,0.0,27,0.00,,,0.00,WUHU21623XXSP,2013-08-07 03:33:00,
2013-08-06 20:38:00,76.6,40.9,30.07,WNW,292,0.0,0.0,28,0.00,,,0.00,WUHU21623XXSP,2013-08-07 03:38:00,
2013-08-06 20:44:00,76.3,40.6,30.07,WNW,292,3.8,3.8,28,0.00,,,0.00,WUHU21623XXSP,2013-08-07 03:44:00,
2013-08-06 20:49:00,76.1,40.5,30.07,NW,315,3.1,3.8,28,0.00,,,0.00,WUHU21623XXSP,2013-08-07 03:49:00,
2013-08-06 20:54:00,75.9,40.3,30.08,NW,315,0.9,3.1,28,0.00,,,0.00,WUHU21623XXSP,2013-08-07 03:54:00,
2013-08-06 20:59:00,75.7,40.1,30.08,WNW,292,5.1,5.1,28,0.00,,,0.00,WUHU21623XXSP,2013-08-07 03:59:00,
2013-08-06 21:01:00,75.7,40.1,30.08,WNW,292,5.1,5.1,28,0.00,,,0.00,WUHU21623XXSP,2013-08-07 04:01:00,
2013-08-06 21:06:00,75.7,40.1,30.08,NW,315,0.0,5.1,28,0.00,,,0.00,WUHU21623XXSP,2013-08-07 04:06:00,
2013-08-06 21:11:00,75.4,39.8,30.09,South,180,0.0,0.0,28,0.00,,,0.00,WUHU21623XXSP,2013-08-07 04:11:00,
2013-08-06 21:16:00,75.0,39.5,30.09,NW,315,0.0,0.0,28,0.00,,,0.00,WUHU21623XXSP,2013-08-07 04:16:00,
2013-08-06 21:21:00,75.0,39.5,30.09,South,180,2.5,2.5,28,0.00,,,0.00,WUHU21623XXSP,2013-08-07 04:21:00,
2013-08-06 21:27:00,74.8,39.3,30.09,ESE,112,0.0,2.5,28,0.00,,,0.00,WUHU21623XXSP,2013-08-07 04:27:00,
2013-08-06 21:33:00,74.3,38.9,30.10,NNW,337,0.0,0.0,28,0.00,,,0.00,WUHU21623XXSP,2013-08-07 04:33:00,
2013-08-06 21:44:00,74.1,38.7,30.10,ENE,67,0.0,0.0,28,0.00,,,0.00,WUHU21623XXSP,2013-08-07 04:44:00,
2013-08-06 21:50:00,73.9,38.6,30.10,WSW,247,0.0,0.0,28,0.00,,,0.00,WUHU21623XXSP,2013-08-07 04:50:00,
2013-08-06 21:58:00,73.6,38.2,30.10,NE,45,0.0,0.0,28,0.00,,,0.00,WUHU21623XXSP,2013-08-07 04:58:00,
2013-08-06 22:05:00,73.2,38.9,30.10,South,180,0.0,0.0,29,0.00,,,0.00,WUHU21623XXSP,2013-08-07 05:05:00,
2013-08-06 22:10:00,73.2,38.9,30.11,South,180,0.0,0.0,29,0.00,,,0.00,WUHU21623XXSP,2013-08-07 05:10:00,
2013-08-06 22:15:00,73.0,38.8,30.10,SE,135,0.0,0.0,29,0.00,,,0.00,WUHU21623XXSP,2013-08-07 05:15:00,
2013-08-06 22:20:00,72.7,38.5,30.10,NE,45,0.0,0.0,29,0.00,,,0.00,WUHU21623XXSP,2013-08-07 05:20:00,
2013-08-06 22:35:00,72.3,39.2,30.10,North,0,0.0,0.0,30,0.00,,,0.00,WUHU21623XXSP,2013-08-07 05:35:00,
2013-08-06 22:43:00,72.0,39.7,30.10,SE,135,0.0,0.0,31,0.00,,,0.00,WUHU21623XXSP,2013-08-07 05:43:00,
2013-08-06 22:48:00,71.8,39.5,30.10,SE,135,0.0,0.0,31,0.00,,,0.00,WUHU21623XXSP,2013-08-07 05:48:00,
2013-08-06 22:53:00,71.4,39.2,30.10,North,0,0.0,0.0,31,0.00,,,0.00,WUHU21623XXSP,2013-08-07 05:53:00,
2013-08-06 22:58:00,71.2,39.1,30.11,NNW,337,0.0,0.0,31,0.00,,,0.00,WUHU21623XXSP,2013-08-07 05:58:00,
2013-08-06 23:03:00,71.1,38.9,30.10,East,90,0.0,0.0,31,0.00,,,0.00,WUHU21623XXSP,2013-08-07 06:03:00,
2013-08-06 23:08:00,70.7,39.3,30.11,NE,45,0.0,0.0,32,0.00,,,0.00,WUHU21623XXSP,2013-08-07 06:08:00,
2013-08-06 23:13:00,70.5,39.2,30.11,NE,45,0.0,0.0,32,0.00,,,0.00,WUHU21623XXSP,2013-08-07 06:13:00,
2013-08-06 23:18:00,70.3,39.0,30.11,North,0,0.0,0.0,32,0.00,,,0.00,WUHU21623XXSP,2013-08-07 06:18:00,
2013-08-06 23:24:00,70.0,38.7,30.11,NNE,22,0.0,0.0,32,0.00,,,0.00,WUHU21623XXSP,2013-08-07 06:24:00,
2013-08-06 23:29:00,70.0,38.7,30.11,NNE,22,0.0,0.0,32,0.00,,,0.00,WUHU21623XXSP,2013-08-07 06:29:00,
2013-08-06 23:34:00,70.0,38.7,30.11,North,0,0.0,0.0,32,0.00,,,0.00,WUHU21623XXSP,2013-08-07 06:34:00,
2013-08-06 23:39:00,69.6,38.5,30.11,NNE,22,0.0,0.0,32,0.00,,,0.00,WUHU21623XXSP,2013-08-07 06:39:00,
2013-08-06 23:44:00,69.6,38.4,30.11,NE,45,0.0,0.0,32,0.00,,,0.00,WUHU21623XXSP,2013-08-07 06:44:00,
2013-08-06 23:54:00,69.1,38.8,30.12,SE,135,0.0,0.0,33,0.00,,,0.00,WUHU21623XXSP,2013-08-07 06:54:00,
2013-08-06 23:59:00,68.9,38.6,30.12,SE,135,0.0,0.0,33,0.00,,,0.00,WUHU21623XXSP,2013-08-07 06:59:00,